Park Rapids, MN

5:37 AM CDT on October 20, 2017 (GMT -0500)
Park Rapids Municipal

Weather History for KPKD - September, 2012

Change the Weather History Date:

Wednesday, September 12, 2012

  Actual Average Record
Temperature  
Mean Temperature 58 °F -  
Max Temperature 71 °F 70 °F 88 °F (1969)
Min Temperature 46 °F 46 °F 30 °F (2014)
Degree Days  
Heating Degree Days 6    
Growing Degree Days 8 (Base 50)    
Moisture  
Dew Point 29 °F    
Average Humidity 36    
Maximum Humidity 66    
Minimum Humidity 16    
Precipitation  
Precipitation 0.00 in - - ()
Sea Level Pressure  
Sea Level Pressure 30.10 in    
Wind  
Wind Speed 10 mph (West)    
Max Wind Speed 26 mph    
Max Gust Speed 38 mph    
Visibility 10 miles    
Events      
Averages and records for this station are not official NWS values.
T = Trace of Precipitation, MM = Missing Value Source: NWS Daily Summary

Daily Weather History Graph

Daily Weather History Graph

Search for Another Location

Airport or City:

Trip Planner

Search our weather history database for the weather conditions in past years. The results will help you decide how hot, cold, wet, or windy it might be!

Date:

Astronomy

Sep. 12, 2012 Rise Set
Actual Time 6:54 AM CDT 7:37 PM CDT
Civil Twilight 6:24 AM CDT 8:07 PM CDT
Nautical Twilight 5:47 AM CDT 8:44 PM CDT
Astronomical Twilight 5:09 AM CDT 9:22 PM CDT
Moon 3:01 AM CDT (9/12) 5:34 PM CDT (9/12)
Length of Visible Light 13h 43m
Length of Day
12h 42m
Waning Crescent, 13% of the Moon is Illuminated
Sep 12
Waning Crescent
Sep 15
New
Sep 22
First Quarter
Sep 29
Full
Oct 8
Last Quarter

Hourly Weather History & Observations

Time (CDT) Temp. Dew Point Humidity Pressure Visibility Wind Dir Wind Speed Gust Speed Precip Events Conditions
12:53 AM 59.0 °F 32.0 °F 36% 29.94 in 10.0 mi NW 6.9 mph - N/A   Clear
1:53 AM 55.0 °F 36.0 °F 49% 29.98 in 10.0 mi SW 6.9 mph - N/A   Clear
2:53 AM 55.9 °F 35.1 °F 45% 29.98 in 10.0 mi West 6.9 mph - N/A   Mostly Cloudy
3:53 AM 54.0 °F 37.9 °F 55% 30.01 in 10.0 mi WSW 8.1 mph - N/A   Clear
4:53 AM 53.1 °F 37.9 °F 57% 30.01 in 10.0 mi West 5.8 mph - N/A   Clear
5:53 AM 51.1 °F 39.0 °F 63% 30.03 in 10.0 mi West 4.6 mph - N/A   Clear
6:53 AM 51.1 °F 39.9 °F 66% 30.06 in 10.0 mi West 4.6 mph - N/A   Clear
7:53 AM 51.1 °F 39.0 °F 63% 30.07 in 10.0 mi West 5.8 mph - N/A   Clear
8:53 AM 55.0 °F 36.0 °F 49% 30.09 in 10.0 mi West 5.8 mph - N/A   Clear
9:53 AM 60.1 °F 30.0 °F 32% 30.12 in 10.0 mi West 12.7 mph - N/A   Clear
10:53 AM 64.0 °F 28.9 °F 27% 30.13 in 10.0 mi WNW 17.3 mph 24.2 mph N/A   Clear
11:53 AM 66.0 °F 27.0 °F 23% 30.13 in 10.0 mi West 15.0 mph 24.2 mph N/A   Clear
12:53 PM 66.9 °F 21.0 °F 17% 30.12 in 10.0 mi WNW 24.2 mph 31.1 mph N/A   Clear
1:53 PM 70.0 °F 23.0 °F 17% 30.12 in 10.0 mi WNW 26.5 mph 29.9 mph N/A   Clear
2:53 PM 69.1 °F 26.1 °F 20% 30.12 in 10.0 mi West 23.0 mph 34.5 mph N/A   Clear
3:53 PM 71.1 °F 21.9 °F 16% 30.11 in 10.0 mi WNW 23.0 mph 38.0 mph N/A   Clear
4:53 PM 66.9 °F 23.0 °F 19% 30.12 in 10.0 mi WNW 18.4 mph 29.9 mph N/A   Clear
5:53 PM 66.9 °F 23.0 °F 19% 30.13 in 10.0 mi West 19.6 mph 27.6 mph N/A   Clear
6:53 PM 64.9 °F 25.0 °F 22% 30.14 in 10.0 mi WNW 8.1 mph - N/A   Clear
7:53 PM 62.1 °F 21.9 °F 21% 30.16 in 10.0 mi West 9.2 mph - N/A   Clear
8:53 PM 55.0 °F 25.0 °F 31% 30.19 in 10.0 mi West 6.9 mph - N/A   Clear
9:53 PM 51.1 °F 25.0 °F 36% 30.21 in 10.0 mi West 6.9 mph - N/A   Clear
10:53 PM 46.9 °F 28.0 °F 48% 30.22 in 10.0 mi West 8.1 mph - N/A   Clear
11:53 PM 48.9 °F 26.1 °F 41% 30.22 in 10.0 mi West 3.5 mph - N/A   Clear